FW2982 Weather Reports


Display with metric or nautical units.
time (UTC)temp
F
wind
direction
speed
MPH
gust
MPH
rain 1hr
in
rain 24hr
in
rain mn
in
humidity
%
barometer
mb
20260905140806 77 183 0.0 3.0 0.00 0.16 0.01 84 1010.5
20260905140307 77 62 1.0 3.0 0.00 0.16 0.01 85 1010.4
20260905135805 77 47 0.0 6.0 0.00 0.16 0.01 85 1010.3
20260905135306 77 37 2.0 6.0 0.00 0.16 0.01 85 1010.1
20260905134804 77 86 1.0 3.0 0.00 0.16 0.01 87 1009.9
20260905134607 77 62 1.0 3.0 0.00 0.16 0.01 88 1010.0
20260905134602 77 94 1.0 3.0 0.00 0.16 0.01 87 1009.9
20260905133306 77 61 0.0 3.0 0.00 0.16 0.01 88 1010.1
20260905132804 76 281 0.0 3.0 0.00 0.16 0.01 88 1010.0
20260905132306 77 316 1.0 4.0 0.00 0.17 0.01 88 1010.0
20260905131803 77 99 0.0 4.0 0.00 0.17 0.01 89 1009.9
20260905131304 77 56 2.0 4.0 0.00 0.17 0.01 92 1010.1
20260905130803 76 27 0.0 2.0 0.00 0.17 0.01 94 1010.1
20260905130304 76 305 1.0 2.0 0.00 0.17 0.01 95 1009.9
20260905125804 75 296 0.0 0.0 0.00 0.17 0.01 96 1010.0
20260905125306 75 296 0.0 0.0 0.00 0.17 0.01 96 1010.0
20260905124803 74 296 0.0 0.0 0.00 0.17 0.01 97 1010.0
20260905124304 74 296 0.0 0.0 0.00 0.18 0.01 97 1009.9
20260905123804 73 296 0.0 0.0 0.00 0.18 0.01 97 1009.9
20260905123303 73 296 0.0 0.0 0.00 0.18 0.01 97 1009.9
20260905122802 73 296 0.0 0.0 0.00 0.19 0.01 97 1010.0
20260905122302 73 296 0.0 0.0 0.00 0.19 0.01 97 1009.9
20260905121803 72 296 0.0 0.0 0.00 0.19 0.01 97 1009.8
20260905121303 71 296 0.0 0.0 0.00 0.20 0.01 97 1009.9
20260905121041 71 296 0.0 0.0 0.00 0.20 0.01 97 1009.9
20260905120303 71 296 0.0 0.0 0.00 0.20 0.01 97 1009.9
20260905115803 71 296 0.0 0.0 0.00 0.21 0.01 97 1009.8
20260905115306 70 296 0.0 0.0 0.00 0.21 0.01 97 1009.7
20260905114802 70 296 0.0 0.0 0.00 0.21 0.01 97 1009.6
20260905114302 70 296 0.0 0.0 0.00 0.21 0.01 97 1009.6
20260905113802 69 296 0.0 0.0 0.00 0.21 0.01 97 1009.7
20260905113302 69 296 0.0 0.0 0.00 0.22 0.01 97 1009.6
20260905112801 69 296 0.0 0.0 0.00 0.22 0.01 97 1009.5
20260905112305 69 296 0.0 0.0 0.00 0.22 0.01 97 1009.7
20260905111803 69 296 0.0 0.0 0.00 0.22 0.01 97 1009.7
20260905111259 69 296 0.0 0.0 0.00 0.22 0.01 97 1009.8
20260905110800 69 296 0.0 0.0 0.00 0.22 0.01 97 1009.5
20260905110259 69 296 0.0 0.0 0.00 0.23 0.01 97 1009.3
20260905110040 69 296 0.0 0.0 0.00 0.23 0.01 97 1009.2
20260905105259 69 296 0.0 0.0 0.01 0.23 0.01 97 1009.2
20260905104800 69 296 0.0 0.0 0.01 0.23 0.01 97 1009.1
20260905104259 69 296 0.0 0.0 0.01 0.23 0.01 97 1009.1
20260905103800 69 296 0.0 0.0 0.01 0.23 0.01 97 1009.1
20260905103300 69 296 0.0 0.0 0.01 0.23 0.01 97 1009.0
20260905102759 69 296 0.0 0.0 0.01 0.24 0.01 97 1008.9
20260905102259 69 296 0.0 0.0 0.01 0.24 0.01 96 1008.8
20260905101745 69 296 0.0 0.0 0.01 0.24 0.01 97 1008.8
20260905101243 69 296 0.0 0.0 0.01 0.24 0.01 97 1008.9
20260905100740 69 296 0.0 0.0 0.01 0.24 0.01 97 1008.9
20260905100235 69 296 0.0 0.0 0.01 0.24 0.01 97 1008.9
20260905095731 69 296 0.0 0.0 0.01 0.23 0.01 97 1008.8
20260905095235 69 296 0.0 0.0 0.00 0.24 0.00 97 1008.8
20260905094731 69 296 0.0 0.0 0.00 0.24 0.00 97 1008.8
20260905094231 69 296 0.0 0.0 0.00 0.24 0.00 97 1008.8
20260905093731 69 296 0.0 0.0 0.00 0.24 0.00 97 1008.8
20260905093231 69 296 0.0 0.0 0.00 0.24 0.00 97 1008.7
20260905092733 69 296 0.0 0.0 0.00 0.24 0.00 97 1008.8
20260905092340 69 296 0.0 0.0 0.00 0.25 0.00 97 1008.8
20260905092323 69 296 0.0 0.0 0.00 0.24 0.00 97 1008.7
20260905091805 69 296 0.0 0.0 0.00 0.25 0.00 97 1008.8
20260905091246 69 296 0.0 0.0 0.00 0.25 0.00 97 1008.7
20260905090232 69 296 0.0 0.0 0.00 0.25 0.00 97 1008.8
20260905085731 69 296 0.0 0.0 0.00 0.26 0.00 97 1008.8
20260905085205 69 296 0.0 0.0 0.00 0.26 0.00 97 1008.7
20260905084705 69 296 0.0 1.0 0.00 0.26 0.00 97 1008.8
20260905084203 69 296 0.0 2.0 0.00 0.26 0.00 97 1008.7
20260905083930 69 296 0.0 2.0 0.00 0.26 0.00 97 1008.7
20260905083710 69 296 0.0 2.0 0.00 0.26 0.00 97 1008.7
20260905083202 69 286 0.0 2.0 0.00 0.26 0.00 97 1008.6
20260905082701 69 350 0.0 0.0 0.00 0.27 0.00 97 1008.6
20260905082441 69 350 0.0 0.0 0.00 0.27 0.00 97 1008.7
20260905081659 69 355 0.0 0.0 0.00 0.27 0.00 97 1008.6
20260905081157 69 10 0.0 0.0 0.00 0.28 0.00 97 1008.6
20260905080655 69 10 0.0 0.0 0.00 0.28 0.00 97 1008.8
20260905080156 69 10 0.0 0.0 0.00 0.28 0.00 97 1008.9
20260905075655 69 10 0.0 0.0 0.00 0.28 0.00 97 1009.0
20260905075155 69 10 0.0 0.0 0.00 0.29 0.00 97 1009.1
20260905074656 69 10 0.0 0.0 0.00 0.29 0.00 97 1009.1
20260905074155 69 10 0.0 0.0 0.00 0.29 0.00 97 1009.1
20260905073656 70 10 0.0 0.0 0.00 0.29 0.00 97 1009.1
20260905073154 70 10 0.0 0.0 0.00 0.30 0.00 97 1009.1
20260905072655 70 10 0.0 0.0 0.00 0.30 0.00 97 1009.1
20260905072433 70 10 0.0 0.0 0.00 0.30 0.00 97 1009.1
20260905071654 70 10 0.0 0.0 0.00 0.30 0.00 97 1009.1
20260905071154 70 10 0.0 0.0 0.00 0.31 0.00 97 1009.1
20260905070655 70 34 0.0 0.0 0.00 0.31 0.00 97 1009.1
20260905070154 70 34 0.0 0.0 0.00 0.32 0.00 97 1009.1
20260905065655 70 34 0.0 1.0 0.00 0.32 0.00 97 1009.2
20260905065153 70 52 0.0 1.0 0.00 0.32 0.00 97 1009.3
20260905064653 70 52 0.0 1.0 0.00 0.32 0.00 97 1009.2
20260905064154 70 52 0.0 1.0 0.00 0.33 0.00 97 1009.3
20260905063654 70 52 0.0 1.0 0.00 0.33 0.00 96 1009.4
20260905063430 70 52 0.0 0.0 0.00 0.34 0.00 96 1009.6
20260905062654 70 52 0.0 0.0 0.00 0.34 0.00 96 1009.7
20260905062153 70 52 0.0 0.0 0.00 0.34 0.00 97 1009.7
20260905061653 71 52 0.0 0.0 0.00 0.35 0.00 97 1009.9
20260905061152 71 52 0.0 0.0 0.00 0.35 0.00 97 1010.0
20260905060720 71 52 0.0 0.0 0.00 0.36 0.00 97 1010.2
20260905060710 71 52 0.0 0.0 0.00 0.36 0.00 97 1010.0
20260905055652 71 52 0.0 0.0 0.00 0.36 0.00 96 1010.0
20260905055153 71 52 0.0 0.0 0.00 0.37 0.00 96 1010.1
20260905054653 71 52 0.0 0.0 0.00 0.37 0.00 97 1010.1
20260905054432 71 52 0.0 0.0 0.00 0.38 0.00 96 1010.2
20260905053653 71 52 0.0 0.0 0.00 0.38 0.00 96 1010.4
20260905053152 71 52 0.0 0.0 0.00 0.38 0.00 96 1010.5
20260905052652 71 52 0.0 0.0 0.00 0.39 0.00 96 1010.3
20260905052152 71 52 0.0 0.0 0.00 0.39 0.00 97 1010.3
20260905051643 71 52 0.0 0.0 0.00 0.40 0.00 96 1010.4
20260905051420 71 52 0.0 0.0 0.00 0.40 0.00 97 1010.4
20260905050917 71 52 0.0 0.0 0.00 0.41 0.00 97 1010.5
20260905050420 71 52 0.0 0.0 0.00 0.42 0.00 96 1010.5
20260905045639 71 52 0.0 0.0 0.00 0.42 0.00 96 1010.5
20260905045416 71 52 0.0 0.0 0.01 0.43 0.00 96 1010.6
20260905044639 71 52 0.0 0.0 0.01 0.43 0.00 96 1010.6
20260905044135 71 52 0.0 0.0 0.01 0.44 0.00 96 1010.7
20260905043636 71 52 0.0 0.0 0.01 0.45 0.00 96 1010.6
20260905043136 71 52 0.0 0.0 0.01 0.45 0.00 96 1010.6
20260905042635 71 52 0.0 0.0 0.01 0.46 0.00 96 1010.7
20260905042132 72 52 0.0 0.0 0.01 0.47 0.00 96 1010.7
20260905041634 72 52 0.0 0.0 0.01 0.48 0.00 96 1010.8
20260905041412 72 52 0.0 0.0 0.01 0.48 0.00 96 1010.8
20260905040634 72 52 0.0 0.0 0.01 0.49 0.00 96 1010.8
20260905040135 72 52 0.0 0.0 0.01 0.50 0.00 96 1010.9
20260905035630 72 52 0.0 0.0 0.01 0.50 0.51 96 1010.8
20260905035130 71 52 0.0 0.0 0.00 0.52 0.50 96 1010.8
20260905034606 71 52 0.0 0.0 0.00 0.53 0.50 96 1010.9
20260905034106 71 52 0.0 0.0 0.00 0.54 0.50 96 1011.0
20260905033603 72 52 0.0 0.0 0.00 0.56 0.50 96 1011.1
20260905033103 72 52 0.0 0.0 0.00 0.57 0.50 96 1011.0
20260905032602 72 52 0.0 0.0 0.00 0.59 0.50 96 1011.0
20260905032103 72 52 0.0 0.0 0.00 0.60 0.50 96 1010.9
20260905031604 72 52 0.0 0.0 0.00 0.60 0.50 96 1011.0
20260905031101 72 52 0.0 0.0 0.00 0.60 0.50 96 1011.0
20260905030845 72 52 0.0 0.0 0.00 0.60 0.50 96 1011.0
20260905025603 72 52 0.0 0.0 0.00 0.60 0.50 96 1010.9
20260905025103 72 52 0.0 0.0 0.01 0.60 0.50 96 1010.9
20260905024840 72 52 0.0 0.0 0.01 0.60 0.50 96 1011.0
20260905024102 72 52 0.0 0.0 0.01 0.60 0.50 96 1010.9
20260905023603 72 52 0.0 0.0 0.01 0.60 0.50 96 1010.9
20260905023343 72 52 0.0 0.0 0.01 0.60 0.50 96 1010.9
20260905022600 72 52 0.0 0.0 0.01 0.60 0.50 96 1010.9
20260905022059 72 52 0.0 0.0 0.01 0.60 0.50 96 1010.9
20260905021838 72 52 0.0 0.0 0.01 0.60 0.50 96 1010.9
20260905021101 72 52 0.0 0.0 0.01 0.60 0.50 96 1010.8
20260905020600 72 52 0.0 0.0 0.01 0.60 0.50 96 1010.6
20260905020056 72 52 0.0 0.0 0.01 0.60 0.50 96 1010.4
20260905015557 72 52 0.0 0.0 0.01 0.59 0.50 96 1010.4
20260905015056 73 52 0.0 0.0 0.00 0.59 0.49 96 1010.5
20260905014555 73 52 0.0 0.0 0.00 0.59 0.49 96 1010.6
20260905014056 73 52 0.0 0.0 0.00 0.59 0.49 96 1010.6
20260905013613 73 52 0.0 0.0 0.00 0.59 0.49 96 1010.4
20260905013607 73 52 0.0 0.0 0.00 0.59 0.49 96 1010.4
20260905012549 73 52 0.0 0.0 0.00 0.59 0.49 96 1010.4
20260905012046 73 52 0.0 0.0 0.00 0.59 0.49 96 1010.2
20260905011546 73 52 0.0 0.0 0.00 0.59 0.49 96 1010.1
20260905011046 73 52 0.0 0.0 0.00 0.59 0.49 96 1010.1
20260905010546 73 52 0.0 0.0 0.00 0.59 0.49 96 1010.0
20260905010047 74 52 0.0 0.0 0.00 0.59 0.49 95 1009.9
20260905005546 73 52 0.0 0.0 0.00 0.59 0.49 95 1009.8
20260905005046 74 52 0.0 0.0 0.00 0.59 0.49 96 1009.8
20260905004546 74 52 0.0 0.0 0.00 0.59 0.49 96 1009.8
20260905004324 74 52 0.0 0.0 0.00 0.59 0.49 96 1009.8
20260905003547 74 52 0.0 0.0 0.00 0.59 0.49 95 1010.0
20260905003046 74 52 0.0 0.0 0.00 0.59 0.49 95 1009.9
20260905002545 74 52 0.0 0.0 0.01 0.59 0.49 95 1009.8
20260905002045 74 52 0.0 0.0 0.01 0.59 0.49 95 1009.9
20260905001546 74 52 0.0 0.0 0.01 0.59 0.49 95 1009.9
20260905001045 74 52 0.0 0.0 0.01 0.59 0.49 95 1009.9
20260905000544 75 52 0.0 0.0 0.01 0.59 0.49 95 1009.9
20260905000325 75 52 0.0 0.0 0.01 0.59 0.49 95 1010.0
20260904235545 75 52 0.0 0.0 0.01 0.58 0.49 95 1009.9
20260904235044 75 52 0.0 0.0 0.01 0.58 0.49 95 1009.9
20260904234544 75 52 0.0 0.0 0.01 0.58 0.49 95 1009.9
20260904234044 75 52 0.0 0.0 0.01 0.58 0.49 95 1010.0
20260904233826 75 52 0.0 0.0 0.01 0.58 0.49 95 1010.1
20260904233044 75 52 0.0 0.0 0.01 0.58 0.48 95 1010.2
20260904232544 75 52 0.0 0.0 0.00 0.58 0.48 95 1010.2
20260904232045 75 52 0.0 0.0 0.00 0.58 0.48 95 1010.0
20260904231544 76 52 0.0 0.0 0.00 0.58 0.48 95 1010.1
20260904231046 76 52 0.0 0.0 0.00 0.58 0.48 95 1010.2
20260904230543 76 52 0.0 0.0 0.00 0.58 0.48 95 1010.2
20260904230106 76 52 0.0 0.0 0.00 0.58 0.48 95 1010.0
20260904230058 76 52 0.0 0.0 0.00 0.58 0.48 95 1010.1
20260904225043 76 52 0.0 0.0 0.01 0.58 0.48 95 1010.1
20260904224544 76 52 0.0 0.0 0.01 0.58 0.48 95 1009.9
20260904224309 76 52 0.0 0.0 0.01 0.58 0.48 95 1009.9
20260904223533 76 52 0.0 0.0 0.01 0.58 0.48 95 1009.6
20260904223031 76 52 0.0 0.0 0.01 0.58 0.48 95 1009.6
20260904222531 76 52 0.0 0.0 0.01 0.58 0.48 95 1009.9
20260904222031 76 52 0.0 0.0 0.01 0.58 0.48 95 1010.1
20260904221532 76 52 0.0 0.0 0.01 0.58 0.48 94 1010.2
20260904221031 76 52 0.0 0.0 0.01 0.58 0.48 95 1010.1
20260904220530 76 52 0.0 0.0 0.01 0.58 0.48 95 1010.4
20260904220032 76 52 0.0 0.0 0.01 0.57 0.48 94 1010.5
20260904215530 75 52 0.0 0.0 0.01 0.57 0.48 94 1010.6
20260904215056 75 52 0.0 0.0 0.00 0.57 0.47 94 1010.7
20260904215048 75 52 0.0 0.0 0.00 0.57 0.47 94 1010.6
20260904214018 75 52 0.0 0.0 0.00 0.57 0.47 94 1010.7
20260904213515 75 52 0.0 0.0 0.00 0.57 0.47 94 1010.6
20260904213015 75 52 0.0 0.0 0.00 0.57 0.47 93 1010.5
20260904212514 75 52 0.0 0.0 0.00 0.57 0.47 93 1010.7
20260904212012 75 52 0.0 1.0 0.01 0.57 0.47 93 1010.7
20260904211511 75 52 0.0 2.0 0.01 0.57 0.47 92 1010.7
20260904211247 76 52 0.0 3.0 0.01 0.57 0.47 92 1010.8
20260904210509 76 52 0.0 3.0 0.01 0.57 0.47 91 1010.9
20260904210010 76 275 0.0 5.0 0.01 0.56 0.47 90 1011.0
20260904205504 77 271 0.0 5.0 0.01 0.56 0.47 87 1010.7
20260904205006 78 345 1.0 5.0 0.01 0.56 0.47 85 1011.3
20260904204505 80 279 2.0 6.0 0.01 0.56 0.47 82 1011.5
20260904204003 83 248 3.0 6.0 0.01 0.56 0.47 82 1011.7
20260904203503 84 35 0.0 0.0 0.01 0.56 0.47 81 1011.1
20260904203004 84 35 0.0 0.0 0.01 0.56 0.47 81 1010.8
20260904202504 85 35 0.0 0.0 0.02 0.56 0.47 79 1010.9
20260904202244 85 35 0.0 0.0 0.01 0.56 0.46 78 1010.9
20260904201503 86 35 0.0 0.0 0.01 0.56 0.46 77 1010.9
20260904201003 86 35 0.0 0.0 0.01 0.56 0.46 76 1010.9
20260904200505 87 38 0.0 1.0 0.01 0.56 0.46 76 1010.7
20260904200003 87 38 0.0 1.0 0.01 0.55 0.46 75 1010.7
20260904195503 87 38 0.0 2.0 0.01 0.55 0.46 74 1010.5
20260904194957 88 45 1.0 2.0 0.01 0.55 0.46 72 1010.4
20260904194458 88 45 0.0 2.0 0.01 0.55 0.46 74 1010.3
20260904193958 88 45 0.0 1.0 0.01 0.55 0.46 72 1010.4
20260904193732 89 45 0.0 1.0 0.01 0.55 0.46 69 1010.3
20260904192951 90 45 1.0 3.0 0.01 0.55 0.46 65 1010.3
20260904192448 91 45 1.0 3.0 0.01 0.55 0.45 65 1010.5
20260904191945 91 324 0.0 4.0 0.01 0.55 0.45 65 1010.5
20260904191446 91 312 0.0 4.0 0.01 0.55 0.45 66 1010.4
20260904190945 91 295 1.0 3.0 0.01 0.55 0.45 65 1010.5
20260904190440 91 268 1.0 3.0 0.01 0.55 0.45 63 1010.3
20260904190222 91 73 1.0 3.0 0.01 0.54 0.45 65 1010.5
20260904185442 91 152 1.0 4.0 0.01 0.54 0.45 63 1010.7
20260904184940 91 250 1.0 4.0 0.02 0.54 0.45 65 1010.7
20260904184439 91 206 2.0 4.0 0.02 0.54 0.45 63 1010.9
20260904184218 91 281 2.0 4.0 0.02 0.54 0.45 63 1011.1
20260904183438 91 319 1.0 4.0 0.02 0.54 0.45 64 1011.2
20260904183218 91 283 1.0 4.0 0.02 0.54 0.45 63 1011.3
20260904182437 91 0 1.0 3.0 0.01 0.54 0.44 65 1011.3
20260904182221 90 329 0.0 3.0 0.01 0.54 0.44 66 1011.4
20260904181437 90 173 0.0 3.0 0.01 0.54 0.44 65 1011.4
20260904180938 90 71 1.0 4.0 0.02 0.54 0.44 63 1011.5
20260904180437 91 62 1.0 4.0 0.02 0.54 0.44 62 1011.5
20260904175938 90 31 1.0 3.0 0.02 0.52 0.44 64 1011.5
20260904175437 90 358 0.0 2.0 0.02 0.52 0.44 65 1011.6
20260904175218 91 34 1.0 4.0 0.01 0.52 0.43 63 1011.6
20260904174436 90 289 0.0 4.0 0.01 0.52 0.43 64 1011.6
20260904173939 91 338 2.0 4.0 0.02 0.52 0.43 64 1011.6
20260904173436 90 58 2.0 4.0 0.02 0.52 0.43 64 1011.7
20260904172936 90 55 1.0 4.0 0.02 0.52 0.43 63 1011.7
20260904172436 91 144 2.0 4.0 0.02 0.52 0.43 61 1011.9
20260904171935 90 55 1.0 4.0 0.02 0.52 0.43 63 1011.9
20260904171435 90 39 2.0 4.0 0.02 0.52 0.43 63 1011.9
20260904170937 90 59 1.0 4.0 0.01 0.52 0.42 63 1012.0
20260904170435 90 316 1.0 4.0 0.02 0.52 0.42 61 1011.9
20260904165934 90 0 1.0 5.0 0.02 0.50 0.42 64 1011.8
20260904165436 90 307 2.0 6.0 0.02 0.50 0.42 63 1011.9
20260904164934 90 62 2.0 6.0 0.02 0.50 0.42 63 1012.0
20260904164432 91 321 2.0 5.0 0.03 0.50 0.41 61 1012.1
20260904163931 90 216 2.0 4.0 0.02 0.50 0.41 64 1012.1
20260904163430 90 285 2.0 4.0 0.02 0.50 0.41 63 1012.4
20260904162930 90 28 2.0 6.0 0.02 0.50 0.41 63 1012.5
20260904162430 90 255 2.0 6.0 0.02 0.50 0.41 66 1012.6
20260904161928 90 244 2.0 5.0 0.03 0.50 0.41 64 1012.5
20260904161429 89 305 1.0 4.0 0.03 0.50 0.41 63 1012.5
20260904160926 89 52 2.0 4.0 0.03 0.50 0.41 65 1012.6
20260904160425 89 259 2.0 7.0 0.02 0.50 0.40 65 1012.7
20260904155946 89 124 2.0 4.0 0.03 0.47 0.40 65 1012.7
20260904155937 89 0 1.0 7.0 0.03 0.47 0.40 66 1012.6
20260904154923 89 283 2.0 5.0 0.03 0.47 0.40 65 1012.7
20260904154422 89 258 1.0 5.0 0.02 0.47 0.39 65 1012.6
20260904153918 89 82 3.0 5.0 0.02 0.47 0.39 65 1012.5
20260904153658 89 73 1.0 3.0 0.02 0.47 0.39 67 1012.6
20260904152915 88 276 1.0 3.0 0.02 0.47 0.39 69 1012.6
20260904152412 88 41 0.0 4.0 0.02 0.47 0.39 70 1012.6
20260904152150 89 41 1.0 5.0 0.01 0.47 0.38 69 1012.6
20260904151409 88 72 2.0 5.0 0.02 0.47 0.38 67 1012.8
20260904150908 89 258 1.0 5.0 0.02 0.47 0.38 68 1012.8
20260904150408 88 235 1.0 5.0 0.02 0.47 0.38 68 1012.8
20260904150144 88 276 2.0 4.0 0.01 0.46 0.37 70 1013.0
20260904145404 88 42 2.0 6.0 0.01 0.46 0.37 70 1013.0
20260904144904 88 1 2.0 6.0 0.01 0.46 0.37 70 1013.0
20260904144710 88 8 2.0 4.0 0.01 0.46 0.37 70 1012.9
20260904144418 87 59 1.0 5.0 0.01 0.46 0.37 70 1013.0
20260904143405 87 217 1.0 4.0 0.01 0.46 0.37 72 1012.8
20260904142905 87 296 1.0 4.0 0.01 0.46 0.37 73 1012.8
20260904142402 86 0 0.0 3.0 0.02 0.46 0.37 74 1012.8
20260904141902 87 292 1.0 3.0 0.02 0.46 0.37 75 1012.9
20260904141403 87 333 0.0 2.0 0.01 0.46 0.36 76 1012.8